Location: Ladd Observatory
(41.8387°N, 71.3996°W)
Time: 09:12:33
(UTC-05:00)

X-37B - Visible Passes

Search period start: 27 November 2020 00:00
Search period end: 07 December 2020 00:00
Orbit: 384 x 389 km, 45.0° (Epoch: 12 November)

Date Brightness Start Highest point End Pass type
(mag) Time Alt. Az. Time Alt. Az. Time Alt. Az.
27 Nov 1.4 17:41:40 10° SW 17:44:38 37° SSE 17:45:13 33° ESE visible
28 Nov 2.4 16:43:42 10° SSW 16:46:11 21° SE 16:48:42 10° E visible
28 Nov 1.8 18:19:24 10° WSW 18:21:38 42° W 18:21:38 42° W visible
29 Nov 0.7 17:20:51 10° WSW 17:24:00 65° SSE 17:25:44 24° E visible
29 Nov 4.0 18:57:39 10° W 18:58:00 12° W 18:58:00 12° W visible
30 Nov 0.8 17:58:56 10° W 18:02:04 57° NNW 18:02:04 57° NNW visible
01 Dec 0.6 17:00:16 10° WSW 17:03:26 80° NNW 17:06:06 14° ENE visible
01 Dec 3.2 18:37:13 10° WNW 18:38:22 20° WNW 18:38:22 20° WNW visible
02 Dec 1.1 17:38:30 10° W 17:41:35 47° N 17:42:25 36° NE visible
03 Dec 2.1 18:16:44 10° WNW 18:18:44 31° NW 18:18:44 31° NW visible
04 Dec 1.1 17:18:04 10° WNW 17:21:09 44° N 17:22:49 22° ENE visible
04 Dec 3.9 18:54:48 10° WNW 18:55:05 12° WNW 18:55:05 12° WNW visible
05 Dec 0.8 17:56:13 10° WNW 17:59:13 56° N 17:59:13 56° N visible
06 Dec 1.0 16:57:36 10° WNW 17:00:42 47° N 17:03:26 12° E visible
06 Dec 2.9 18:34:16 10° WNW 18:35:43 24° W 18:35:43 24° W visible
